EUTELSAT HOTBIRD 13C

Last updated on Sun Apr 12 2026 00:02:51 GMT+0000 (Coordinated Universal Time)

1 33459U 08065A 26101.43938830 -.00000279 00000+0 00000+0 0 9998 2 33459 2.7779 79.9554 0004166 311.5199 276.0868 1.00270810 46672
UTC large
Height (km)
Speed (km/s)
/
Latitude / Longitude
Inclination (degrees)
Orbital Period (minutes)
Azimuth
Elevation
Range (km)
Doppler Factor

Next 0 passes for location: London (51.5072 / 0.1276)

Sorry there are no passes over London.
EUTELSAT HOTBIRD 13C